Location: Althorst
(53.6379°N, 10.7715°E)
Time: 08:26:19
(UTC+00:00)

Cosmos 1782 - Pass Details

Date: 10 December 2019
Orbit: 538 x 551 km, 82.5° (Epoch: 24 January)

Event Time Altitude Azimuth Distance (km) Brightness Sun altitude
Rises 15:39:48 0° 183° (S) 2,701 6.9 -6.0°
Reaches altitude 10° 15:41:57 10° 181° (S) 1,811 5.9 -6.3°
Maximum altitude 15:45:55 70° 99° (E) 584 2.8 -6.8°
Drops below altitude 10° 15:49:54 10° 15° (NNE) 1,819 5.1 -7.3°
Sets 15:52:04 0° 13° (NNE) 2,715 6.0 -7.6°
Enters shadow 15:52:10 - 13° (NNE) 2,754 6.0 -7.6°
